Wetbulb
54.23 54.04 53.96 53.42 54.66 54.54 55.67 57.20 58.55 60.09 60.38 61.65 63.26 64.77 64.92 60.30 58.82 57.11 56.41 58.59 58.76 58.06 57.94 56.16 56.66 59.77 59.44 61.81 63.24 61.75 60.02 57.51 55.13 55.38 57.55 58.89 57.43 59.34 61.78 65.13 64.93 63.83 64.17
52.72 51.81 51.53 54.82 54.35 53.75 54.25 56.12 56.90 57.95 59.09 58.36 57.94 59.57 60.58 62.27 61.53 59.71 58.21 60.12 60.59 57.95 56.51 56.29 56.09 59.26 58.26 60.31 64.22 61.05 59.08 56.95 54.92 53.51 53.16 55.42 56.42 57.37 60.93 63.06 64.59 65.92 65.45
51.66 50.19 49.61 50.37 51.92 52.52 53.61 54.54 54.78 55.68 57.30 58.02 56.64 57.26 57.36 58.48 62.43 62.26 61.44 60.43 57.61 57.33 55.94 56.87 57.09 57.45 57.52 61.93 63.85 61.80 59.36 58.79 55.39 54.44 53.80 57.57 58.68 60.32 60.90 61.51 62.13 63.04 65.39
50.13 49.32 48.81 49.07 50.25 51.20 52.24 52.54 53.25 54.66 56.42 56.62 56.89 56.63 57.71 56.49 60.57 62.05 60.99 57.41 57.88 56.67 56.48 57.16 58.97 60.48 61.34 63.30 62.69 61.51 59.82 57.23 55.41 55.69 56.21 56.51 57.43 57.83 58.83 58.18 58.12 60.29 61.23
48.92 48.19 47.99 49.11 49.88 50.30 50.61 51.45 52.40 52.99 54.12 55.60 56.50 56.40 56.51 56.58 56.88 54.32 55.02 58.24 58.62 57.38 57.33 59.39 59.81 60.87 61.46 61.97 62.32 60.36 59.17 57.94 56.47 55.24 52.67 50.89 52.09 53.00 54.11 57.39 57.09 58.35 59.80
47.78 47.71 48.90 49.29 49.78 49.21 49.10 49.28 49.28 50.48 52.04 53.94 55.90 55.27 54.45 56.44 51.06 49.07 53.44 54.92 57.07 58.81 59.58 60.53 60.70 57.52 56.69 56.25 56.21 55.71 57.05 55.45 53.78 51.11 49.89 47.47 49.15 51.19 52.66 53.75 55.69 55.83 55.47
46.81 48.25 48.58 48.20 48.38 47.59 47.65 47.17 46.66 46.23 48.16 50.68 53.86 54.06 52.75 52.04 49.38 48.84 49.71 55.33 55.31 57.52 57.62 56.84 58.17 58.02 55.91 55.56 52.46 51.57 51.01 50.25 50.74 50.78 48.56 50.60 51.02 53.33 54.04 53.78 54.73 55.12 55.79
45.96 46.68 47.65 47.81 47.39 47.47 46.98 45.91 45.83 46.66 47.10 48.20 49.45 53.67 52.66 53.16 48.56 47.39 49.01 54.71 54.82 55.18 57.36 57.69 55.04 56.06 56.43 55.56 51.57 49.76 50.35 50.43 50.50 52.57 52.31 52.98 54.78 55.29 56.81 54.73 53.67 54.33 56.15
45.89 46.25 46.94 47.24 46.42 46.57 45.71 45.08 45.38 45.85 46.20 47.52 49.24 51.51 52.23 52.22 47.50 46.28 49.45 53.86 53.95 55.51 58.92 59.60 56.18 56.78 52.76 50.58 53.47 51.81 52.83 53.79 52.68 49.75 49.56 48.83 49.65 49.52 48.11 52.22 51.26 54.00 56.06
43.43 45.82 47.14 47.19 47.13 46.56 46.16 45.57 45.44 45.71 46.17 47.59 47.56 49.33 51.98 52.52 47.76 45.03 47.77 53.88 54.54 54.82 54.40 58.50 50.64 53.14 49.54 47.15 55.86 54.33 53.36 54.05 55.55 54.45 52.42 50.02 47.75 49.13 44.90 52.53 54.16 54.58 55.73
44.31 44.11 44.78 46.59 46.83 46.76 46.30 46.17 45.93 45.00 46.02 46.60 46.72 48.41 49.46 52.74 54.66 46.21 45.17 54.45 56.17 53.68 54.12 55.75 53.86 46.96 45.45 46.22 47.66 56.89 55.44 55.56 54.13 54.04 53.05 52.02 53.69 54.29 55.10 53.22 55.49 56.73 54.54
40.31 41.55 43.14 44.47 45.28 46.40 45.34 44.82 44.96 45.35 46.14 45.37 44.86 46.72 48.58 49.58 48.49 47.70 44.07 46.93 52.24 56.40 56.31 56.13 54.24 44.77 44.59 44.00 45.56 49.22 47.35 51.97 56.20 54.02 52.83 52.02 51.40 51.08 52.50 55.73 58.08 58.54 57.87
39.62 39.08 41.33 42.53 43.72 44.11 43.27 43.01 43.58 45.24 45.39 45.12 44.62 45.27 46.55 48.91 49.14 47.15 44.31 43.19 45.01 53.30 56.72 54.71 50.08 45.85 43.02 43.87 44.37 45.94 47.12 54.80 53.69 52.07 50.89 50.39 51.11 52.42 53.12 56.77 57.35 57.59 57.63
37.01 37.42 38.25 38.77 39.81 41.22 42.24 42.96 43.61 43.92 44.07 44.42 44.18 44.31 44.72 46.42 48.13 49.66 50.57 47.62 44.63 48.04 51.37 51.85 52.18 51.50 49.63 51.22 47.93 48.20 51.61 53.83 53.65 52.12 50.81 50.50 51.54 52.12 53.10 55.25 55.13 54.82 53.94
36.18 36.63 36.74 37.74 38.37 40.09 41.17 41.81 43.13 44.70 44.53 44.42 45.00 45.37 44.91 44.53 46.48 41.88 45.53 51.41 50.69 49.84 51.64 53.73 52.34 52.57 52.19 51.99 52.14 49.91 51.07 52.79 52.41 51.52 51.29 51.01 51.51 52.20 52.61 53.98 54.53 53.80 53.57
34.85 35.35 36.00 36.83 37.97 38.58 38.94 39.43 40.84 40.68 40.70 39.92 39.58 41.72 46.56 43.43 40.20 40.59 40.84 39.69 39.35 40.86 50.09 51.96 52.43 51.62 51.66 52.92 53.27 52.03 51.79 51.82 53.25 52.21 51.48 51.06 50.95 51.74 52.59 53.68 53.36 52.76 51.85
34.70 34.95 35.87 36.80 36.95 36.78 37.13 38.06 37.00 40.14 40.48 39.46 38.99 38.90 38.57 39.86 38.70 39.70 40.99 40.48 39.62 40.64 48.89 51.71 51.30 51.69 51.40 52.93 54.90 54.04 52.40 53.29 54.31 53.60 53.07 51.57 52.15 53.58 51.06 52.95 52.88 53.46 53.22
32.75 34.51 34.81 35.29 35.90 36.87 37.31 37.83 38.03 37.46 37.44 40.29 39.46 39.14 38.71 38.96 38.24 38.69 39.81 41.74 44.79 42.73 44.80 49.59 51.04 51.78 51.48 51.54 53.78 54.87 54.50 54.19 53.82 53.62 52.32 53.76 54.94 54.32 53.49 53.15 53.56 53.38 54.18
32.16 32.85 34.04 34.15 35.31 36.33 37.20 37.14 37.65 38.16 38.31 39.36 40.91 39.54 39.11 38.40 37.90 36.97 38.57 43.35 43.86 44.56 43.52 47.03 51.12 51.64 51.39 51.78 52.36 54.54 54.35 54.20 54.23 53.00 54.03 55.08 55.36 53.79 52.50 53.76 54.34 45.47 47.28
33.62 34.37 34.37 34.38 34.48 35.48 35.87 35.94 36.56 37.28 37.62 39.20 39.56 39.64 41.02 39.18 40.16 40.21 39.72 43.16 44.26 44.51 44.14 45.03 49.49 51.39 52.13 51.92 52.19 52.10 51.03 50.52 50.74 54.42 55.20 55.46 55.01 54.51 53.76 55.09 54.66 53.89 54.51
35.14 36.31 35.38 36.03 35.62 36.01 35.83 35.51 36.68 36.34 36.49 37.74 38.98 40.50 37.56 40.81 40.18 40.54 40.94 42.28 44.12 45.12 45.60 46.82 48.43 52.94 53.43 54.05 50.17 52.38 50.13 50.39 54.03 55.73 55.35 54.83 55.09 55.19 55.93 56.23 56.15 56.37 56.69
36.56 38.15 39.41 39.67 40.24 38.87 38.20 38.13 37.63 36.93 37.14 37.66 39.67 40.21 35.35 40.67 42.35 41.93 42.49 43.04 44.11 44.98 47.36 47.89 48.82 50.17 51.75 51.69 51.32 49.28 48.47 50.65 54.10 55.05 54.85 55.49 56.05 55.87 56.49 56.43 56.81 56.83 55.43
42.54 48.15 45.14 45.40 46.93 43.63 43.90 43.14 42.03 38.45 38.44 38.90 39.95 40.09 39.75 40.12 43.02 42.97 43.04 44.29 45.72 45.42 47.54 48.72 49.30 49.78 50.73 51.89 51.75 51.13 48.44 51.39 55.20 56.51 56.87 56.67 56.55 56.61 56.69 55.87 55.27 54.98 56.19
44.76 46.33 47.50 47.91 48.49 47.23 45.85 43.13 41.27 38.76 40.01 40.14 40.78 41.12 40.95 40.98 42.95 43.82 44.09 44.63 45.23 46.04 47.05 48.30 49.43 50.37 51.08 51.26 50.42 51.26 52.10 53.68 57.63 57.90 57.90 57.59 57.39 52.30 56.21 55.83 55.85 56.67 53.44
41.74 44.05 44.10 45.02 45.99 46.58 46.96 46.14 45.32 42.60 42.22 41.85 42.18 42.26 42.40 42.89 43.98 44.62 45.08 45.39 45.62 46.65 46.73 47.69 47.84 50.56 50.76 50.04 52.22 51.75 48.66 40.76 56.36 50.28 58.69 58.05 57.09 56.13 56.23 56.33 54.63 52.75 50.77
38.13 39.30 41.40 42.49 43.12 44.00 44.46 45.95 46.04 45.49 44.47 44.25 44.35 44.19 45.08 44.94 45.26 45.50 46.05 46.61 46.07 46.84 48.11 48.83 49.06 49.34 50.24 52.01 53.82 42.14 39.49 40.03 48.61 43.30 58.23 56.23 55.75 56.77 56.07 54.33 52.40 50.01 48.60
MSLP
1006.00 1006.14 1006.22 1006.37 1006.23 1006.02 1006.28 1006.24 1005.97 1005.67 1005.37 1004.99 1004.30 1003.63 1003.21 1003.30 1003.58 1003.78 1004.21 1004.62 1004.69 1005.35 1006.19 1006.60 1006.92 1006.46 1006.81 1007.01 1006.25 1006.85 1006.50 1007.04 1008.10 1008.40 1007.59 1008.08 1008.25 1008.40 1008.20 1007.75 1007.47 1006.80 1006.85
1005.78 1005.83 1005.85 1006.01 1006.07 1006.07 1006.11 1005.86 1005.53 1005.28 1005.11 1005.14 1004.99 1004.31 1003.95 1003.45 1003.29 1003.76 1004.04 1003.96 1004.15 1004.49 1004.88 1005.24 1005.01 1004.96 1005.92 1005.31 1005.62 1006.70 1006.50 1006.60 1006.94 1007.72 1007.62 1007.84 1007.96 1008.04 1008.26 1007.81 1007.50 1006.67 1006.60
1005.35 1005.41 1005.43 1005.36 1005.49 1005.57 1005.62 1005.38 1005.22 1005.03 1004.82 1004.71 1004.69 1004.53 1004.12 1003.73 1003.28 1003.06 1003.12 1003.42 1003.54 1003.63 1003.70 1003.89 1003.73 1004.07 1003.42 1004.06 1004.91 1005.63 1005.91 1006.14 1006.31 1006.94 1007.55 1007.31 1007.20 1006.83 1007.50 1006.87 1007.24 1006.73 1006.12
1004.79 1004.84 1004.94 1004.96 1004.89 1004.75 1004.62 1004.67 1004.75 1004.67 1004.52 1004.37 1004.30 1004.13 1003.99 1003.51 1002.95 1003.13 1003.29 1003.65 1003.51 1003.29 1003.09 1003.19 1003.36 1003.63 1003.63 1003.78 1003.95 1004.67 1004.99 1005.50 1006.19 1006.85 1007.35 1007.43 1007.07 1007.23 1007.41 1007.19 1006.73 1007.20 1006.38
1005.11 1004.86 1004.74 1004.47 1004.15 1003.97 1003.85 1003.84 1003.90 1003.95 1003.89 1003.71 1003.71 1003.61 1003.54 1003.51 1002.97 1002.98 1003.19 1003.63 1003.97 1003.46 1002.73 1002.58 1002.49 1002.49 1002.58 1002.63 1003.11 1003.80 1004.04 1004.92 1005.97 1006.71 1007.37 1007.60 1007.37 1007.53 1007.53 1007.23 1006.83 1007.02 1006.27
1004.98 1004.58 1004.29 1004.14 1004.05 1003.79 1003.61 1003.57 1003.65 1003.68 1003.49 1003.15 1003.02 1002.96 1002.89 1002.56 1002.11 1002.41 1002.27 1002.62 1003.04 1003.30 1002.01 1001.76 1001.63 1001.78 1001.84 1002.05 1002.70 1002.99 1003.71 1004.80 1005.96 1006.46 1007.30 1007.13 1007.34 1007.31 1007.10 1007.08 1006.73 1007.08 1006.78
1004.91 1004.53 1004.20 1003.78 1003.54 1003.36 1003.15 1003.06 1003.07 1003.03 1003.07 1003.14 1002.75 1002.26 1002.17 1002.07 1001.57 1001.03 1001.05 1000.89 1002.52 1002.53 1001.03 1000.70 1001.02 1001.29 1001.72 1002.38 1003.05 1003.56 1004.10 1004.32 1004.74 1005.69 1006.39 1006.46 1006.72 1006.52 1006.69 1006.74 1006.59 1006.90 1007.29
1004.40 1003.85 1003.43 1003.12 1002.64 1002.48 1002.54 1002.34 1002.36 1002.50 1002.42 1002.55 1002.23 1001.91 1001.47 1001.32 1001.11 1000.65 1000.70 1000.73 1001.85 1002.11 1000.32 1000.20 1000.63 1001.60 1001.92 1002.44 1003.32 1004.17 1004.80 1004.74 1004.96 1004.98 1005.45 1005.47 1005.63 1006.10 1005.99 1006.20 1006.13 1006.77 1007.09
1003.82 1003.18 1002.47 1002.27 1001.85 1001.45 1001.42 1001.40 1001.44 1001.54 1001.61 1001.68 1001.38 1001.07 1000.74 1000.49 1000.59 1000.65 1000.91 1001.30 1001.95 1002.36 1000.38 1000.12 1000.60 1001.21 1001.52 1002.03 1002.80 1003.68 1004.17 1004.57 1004.71 1004.61 1004.53 1004.65 1005.36 1005.58 1005.22 1005.69 1006.35 1007.37 1005.75
1003.40 1002.38 1001.79 1001.30 1000.86 1000.57 1000.52 1000.52 1000.57 1000.81 1000.73 1000.62 1000.39 1000.36 999.89 999.49 999.48 999.97 1000.68 1001.17 1001.75 1000.37 1000.21 1000.27 1000.69 1001.26 1001.57 1002.26 1002.32 1002.91 1003.91 1003.93 1004.27 1004.68 1004.74 1004.72 1004.89 1005.06 1005.20 1005.24 1005.93 1006.36 1005.11
1002.37 1001.78 1001.28 1000.84 1000.10 999.79 999.73 999.79 999.75 999.83 999.81 999.54 999.43 999.43 999.34 998.98 998.46 998.95 999.71 1000.23 1000.09 1000.14 1000.31 1000.52 1000.77 1000.49 1001.10 1001.36 1001.96 1002.14 1002.57 1003.03 1003.81 1004.41 1004.69 1004.62 1004.69 1004.69 1004.45 1004.51 1004.81 1005.00 1004.76
1002.25 1001.28 1000.35 999.86 999.65 999.35 999.05 999.02 999.00 998.87 998.59 998.57 998.63 998.43 998.41 998.46 997.98 997.86 998.30 998.97 998.82 999.20 999.37 999.52 999.55 1000.18 1000.43 1000.39 1001.63 1001.53 1002.18 1002.55 1003.30 1003.89 1004.15 1004.01 1003.77 1003.61 1003.58 1003.67 1004.03 1004.27 1003.90
1001.21 1000.44 999.70 999.21 998.82 998.60 998.45 998.31 998.19 997.98 997.62 997.54 997.65 997.60 997.49 997.61 997.55 997.15 997.63 998.20 998.40 998.72 998.37 998.29 998.59 999.61 999.93 1000.23 1000.81 1001.55 1001.74 1002.10 1002.57 1003.27 1003.42 1003.08 1003.06 1003.15 1003.32 1003.59 1003.64 1003.59 1003.54
1000.30 999.84 999.26 998.64 998.08 997.71 997.46 997.24 997.02 996.82 996.71 996.69 996.81 996.98 997.02 997.04 997.12 997.24 997.26 997.67 998.03 998.26 998.10 998.22 998.40 999.20 999.81 999.65 1000.73 1001.10 1001.11 1001.25 1001.75 1002.15 1002.36 1002.23 1002.58 1003.08 1003.41 1003.49 1003.54 1003.68 1003.49
999.56 998.91 998.35 997.77 997.26 996.82 996.47 996.36 996.07 995.73 995.74 995.85 995.89 996.17 996.48 996.62 996.84 996.96 997.20 997.26 997.33 997.23 997.55 998.02 998.68 998.94 998.58 998.86 999.51 1000.02 1000.40 1001.02 1001.49 1001.47 1001.63 1001.98 1002.55 1002.91 1003.04 1002.98 1003.07 1003.24 1003.47
998.49 997.83 997.30 996.92 996.63 996.28 995.80 995.47 995.26 995.09 995.05 995.21 995.51 995.89 995.85 996.26 996.69 996.63 996.62 996.91 997.21 997.37 997.32 997.46 997.71 997.66 997.79 998.33 998.85 999.54 1000.12 1000.45 1000.63 1000.81 1001.18 1001.58 1002.15 1002.41 1002.43 1002.55 1002.76 1003.03 1003.21
997.47 996.82 996.38 995.93 995.48 995.23 995.11 994.79 994.62 994.62 994.60 994.75 994.91 995.30 995.62 996.16 996.34 996.53 996.62 996.82 997.09 997.18 996.83 996.46 996.62 996.91 997.24 997.85 998.23 998.77 999.41 999.59 999.69 1000.02 1000.44 1001.04 1001.50 1001.71 1002.11 1002.32 1002.51 1002.70 1002.72
996.61 995.96 995.29 994.71 994.39 994.17 994.02 993.87 993.79 993.83 993.83 993.82 993.93 994.33 994.68 995.17 995.71 996.19 996.46 996.61 996.77 996.64 996.61 995.84 995.82 996.12 996.68 997.23 997.49 997.75 998.22 998.60 999.06 999.46 999.95 1000.30 1000.61 1000.92 1001.50 1001.77 1002.05 1002.22 1002.30
995.54 994.59 994.08 993.71 993.34 993.03 992.88 992.77 992.72 992.70 992.72 992.77 993.08 993.39 993.72 994.21 994.82 995.38 996.02 996.35 996.52 996.45 996.17 995.57 995.23 995.42 995.90 996.28 996.62 996.93 997.33 997.92 998.37 998.87 999.31 999.70 999.94 1000.34 1000.84 1001.16 1001.52 1001.70 1001.90
994.07 993.31 992.94 992.50 992.13 991.84 991.69 991.64 991.58 991.54 991.70 991.73 991.93 992.37 993.01 993.59 994.03 994.60 995.17 995.30 995.44 995.52 995.38 995.53 995.24 995.08 995.30 995.70 996.05 996.55 996.96 997.35 997.87 998.35 998.71 998.93 999.28 999.78 1000.20 1000.66 1000.76 1000.98 1001.19
993.11 992.09 991.41 991.03 990.69 990.42 990.25 990.15 990.19 990.48 990.68 990.83 991.08 991.50 991.93 992.38 992.82 993.28 993.86 994.35 994.46 994.81 995.32 995.49 995.34 994.93 994.99 995.26 995.67 996.12 996.61 997.02 997.33 997.70 998.07 998.48 998.91 999.41 999.64 1000.04 1000.14 1000.89 1001.24
992.08 990.91 990.24 989.77 989.28 989.01 988.80 988.73 988.92 989.30 989.73 990.07 990.33 990.77 991.30 991.79 991.94 992.38 992.65 993.19 993.98 994.51 994.80 995.16 995.08 994.78 994.58 994.97 995.27 995.76 996.19 996.56 996.81 997.08 997.61 998.04 998.44 998.88 999.37 999.76 1000.09 1000.71 1001.10
991.12 989.70 989.31 988.79 988.41 987.96 988.02 987.91 987.60 988.49 989.01 989.42 989.81 990.20 990.75 991.09 991.31 991.56 991.92 992.40 993.15 993.92 994.31 994.72 994.87 994.80 994.52 994.56 994.77 995.09 995.67 996.10 996.42 996.80 997.07 997.57 998.09 998.59 999.06 999.46 999.90 1000.21 1000.65
991.44 990.49 989.78 989.11 988.50 988.24 988.06 988.07 988.20 988.51 988.78 989.07 989.34 989.63 990.14 990.65 990.84 991.22 991.63 992.05 992.64 993.29 993.74 994.15 994.35 994.38 994.36 994.47 994.73 995.00 995.36 995.65 995.86 996.26 996.39 996.97 997.57 998.13 998.78 999.20 999.81 999.88 1000.15
992.47 991.42 990.71 990.06 989.44 988.78 988.53 988.41 988.36 988.62 988.81 989.07 989.29 989.54 989.81 990.22 990.47 990.83 991.22 991.61 992.17 992.63 993.21 993.74 993.99 994.12 994.23 994.42 994.67 994.84 994.75 995.12 995.31 995.69 996.15 996.60 997.18 997.83 998.44 998.82 999.13 999.57 1000.32
993.70 992.81 991.94 991.24 990.66 990.07 989.58 989.13 988.98 988.94 988.98 989.15 989.27 989.43 989.59 989.89 990.17 990.49 990.86 991.27 991.81 992.23 992.67 993.16 993.44 993.84 994.28 994.48 994.60 994.74 994.96 994.85 994.88 995.46 995.90 996.44 997.07 997.41 998.08 998.84 999.69 1000.21 1000.95
Wind_Speed
5 4 5 6 6 4 4 5 6 7 9 14 14 11 7 7 6 7 7 7 9 8 9 10 8 9 5 15 3 3 4 5 5 3 3 4 6 6 6 8 9 6 5
2 2 2 4 6 5 6 6 6 7 6 5 7 10 11 5 7 8 10 12 13 13 11 12 11 9 12 15 6 6 5 4 5 6 4 3 6 4 7 5 7 6 6
3 3 4 3 3 5 7 7 6 7 10 6 2 5 4 8 8 10 12 13 12 16 14 15 17 17 15 12 9 6 5 3 2 4 3 3 5 4 5 4 4 5 3
4 4 5 6 6 6 6 7 7 7 9 7 5 4 4 2 0 9 10 10 13 15 16 17 16 16 13 10 7 7 6 5 3 3 3 4 2 1 1 2 3 2 3
5 6 7 7 7 7 7 7 7 6 8 11 7 6 5 6 4 6 5 2 10 13 12 11 11 12 14 12 8 6 8 5 4 3 2 1 0 2 1 2 1 3 5
7 7 7 6 6 6 5 5 6 7 8 8 8 6 7 7 9 15 9 3 12 18 15 16 11 13 9 13 11 12 10 7 5 4 3 3 3 3 1 2 1 2 5
7 9 8 7 8 7 7 6 6 7 8 13 12 6 7 7 12 10 0 7 7 17 12 7 7 6 10 9 9 10 9 11 10 7 6 5 4 4 3 2 1 1 6
12 14 14 13 13 13 11 9 9 10 9 11 13 12 7 9 11 11 4 4 10 15 7 8 8 9 9 11 9 7 7 6 7 5 7 7 5 5 5 4 2 2 8
17 18 15 14 16 15 14 12 10 11 12 10 8 13 9 8 14 11 6 6 7 19 5 5 8 8 10 14 10 9 7 6 7 11 12 10 10 11 4 4 2 3 5
22 20 16 18 17 16 13 11 10 11 14 12 12 10 13 10 13 16 12 7 13 14 4 3 6 8 7 11 9 9 8 7 6 4 3 3 7 7 10 6 4 5 3
16 15 18 16 14 13 13 12 12 13 15 11 10 11 9 8 11 15 18 12 11 8 7 6 5 10 13 13 10 11 11 7 8 6 5 5 5 6 5 6 6 4 3
19 20 17 16 13 13 14 13 14 15 15 12 10 11 9 7 9 10 13 20 13 9 8 7 9 17 21 18 14 13 14 11 5 5 5 5 4 2 4 4 7 6 4
17 18 14 13 13 12 13 14 13 14 12 10 8 9 9 7 5 11 10 14 18 7 5 10 14 21 19 8 13 11 12 6 5 5 5 4 3 4 3 1 2 3 3
18 16 15 15 15 15 11 11 12 11 11 10 10 9 7 7 5 6 6 4 10 8 6 5 8 9 13 9 8 6 5 5 7 6 5 3 2 1 2 4 3 3 2
15 14 14 13 13 12 11 10 11 13 11 11 9 8 8 8 6 5 3 7 5 8 8 4 3 4 4 5 4 5 5 5 6 4 4 4 3 3 4 3 3 3 3
14 12 11 10 9 10 10 10 15 18 12 12 11 9 8 10 9 11 11 11 11 9 7 6 7 5 5 5 5 5 5 8 8 6 5 5 5 5 5 2 2 4 3
14 13 10 12 10 10 10 10 10 9 17 18 18 16 11 9 6 6 6 8 8 7 4 6 6 6 6 7 8 7 7 9 9 7 7 6 5 6 4 3 4 3 3
14 22 12 11 11 10 9 10 9 10 10 9 14 17 17 17 10 10 9 5 5 2 4 4 5 6 5 5 5 7 7 6 7 7 5 6 7 6 4 4 4 4 3
13 11 10 9 10 11 9 10 10 10 10 10 8 8 11 14 12 11 12 5 5 6 3 4 4 5 5 5 4 5 7 7 8 5 5 7 7 5 4 4 4 5 2
12 18 16 10 9 9 9 10 10 10 10 8 8 9 8 7 8 9 7 7 8 7 3 3 4 4 6 5 5 5 3 4 5 5 6 6 6 5 5 5 4 2 3
10 10 10 8 8 9 9 10 9 9 9 9 9 8 9 9 9 9 10 10 9 8 5 5 5 4 4 6 4 3 4 4 6 7 6 6 6 5 4 4 4 4 3
11 9 7 7 7 8 8 8 8 9 9 9 7 8 12 10 8 8 10 11 9 7 6 6 4 4 4 4 5 4 3 3 4 5 5 6 6 5 4 4 5 3 2
10 7 5 5 4 3 1 2 3 7 7 7 7 7 7 6 8 9 8 10 10 8 7 7 4 4 3 3 3 2 2 4 5 6 8 7 6 4 4 5 5 2 7
11 11 10 9 6 5 3 3 4 4 5 6 6 7 8 7 5 8 8 9 9 9 9 8 5 5 2 2 0 2 4 5 6 8 9 7 6 6 5 4 2 6 9
11 10 10 9 9 9 5 5 4 4 4 4 5 6 6 8 9 8 9 9 10 11 10 8 5 5 5 5 4 7 7 10 12 9 5 7 6 7 5 5 6 12 13
11 11 10 10 10 9 9 7 5 5 5 5 4 3 3 6 7 8 9 10 9 9 9 7 8 11 8 5 4 2 6 7 8 9 7 7 5 5 7 10 12 11 12
Wind_Direction
201 224 231 254 254 280 293 291 299 324 334 321 303 287 276 219 193 186 186 209 181 169 153 150 171 175 249 284 80 205 160 144 158 259 192 175 186 218 237 251 244 222 230
212 189 216 259 264 290 292 286 296 298 308 337 1 9 2 266 190 194 207 208 194 192 182 178 195 188 217 241 231 187 194 184 143 193 197 218 200 224 250 243 250 236 220
221 260 279 264 253 266 276 283 293 298 296 286 320 318 343 334 202 201 193 201 191 186 196 195 198 208 210 220 218 173 179 160 106 119 226 227 238 213 259 241 243 254 227
232 229 237 248 253 251 258 270 269 272 286 281 258 264 255 56 254 237 215 212 219 212 199 205 207 212 225 211 178 185 156 138 159 173 198 265 264 317 180 54 26 316 260
322 309 279 257 244 248 250 250 254 254 274 283 269 234 240 199 157 114 55 346 229 227 223 221 226 232 230 186 169 173 145 134 148 152 155 147 329 12 319 283 114 285 283
309 287 282 294 297 288 292 290 293 290 277 271 264 244 240 249 205 197 166 39 328 247 215 220 201 159 134 131 137 138 145 144 150 139 177 160 221 208 257 280 1 348 304
295 295 299 298 292 276 265 268 282 289 297 299 283 224 229 245 260 273 299 69 329 262 197 178 149 144 130 131 135 139 151 155 155 161 164 190 183 205 188 248 153 167 259
280 276 273 271 265 268 269 273 280 285 288 283 286 271 223 226 231 248 229 44 286 286 206 165 151 156 164 152 147 154 181 175 174 173 178 196 190 221 194 179 164 256 262
295 286 280 272 270 267 264 264 269 275 275 267 269 270 234 237 206 216 172 129 239 253 226 168 167 164 172 155 154 166 180 210 198 193 199 197 202 214 196 101 286 268 296
284 277 283 272 263 259 260 262 266 270 269 263 267 286 250 217 224 196 191 201 223 236 229 117 132 137 109 193 163 169 183 206 190 191 244 223 225 236 186 198 187 233 258
282 291 284 280 274 260 259 260 261 262 264 253 255 263 277 243 231 210 205 208 215 218 191 181 188 191 172 187 221 179 195 165 186 180 205 205 204 226 219 200 204 195 198
292 278 271 269 265 264 258 261 261 259 254 252 259 263 258 258 260 239 209 205 211 185 196 195 193 198 215 185 192 209 169 167 163 176 187 206 207 242 268 227 212 211 215
282 284 280 283 266 259 263 264 261 252 245 241 238 247 248 244 239 254 254 217 224 223 186 199 188 202 225 193 195 206 175 167 166 175 204 217 188 222 277 183 175 177 211
281 275 273 267 265 258 252 249 246 241 239 239 238 234 249 250 240 243 252 239 242 208 220 155 175 168 181 169 148 167 184 174 177 186 200 199 201 242 201 200 191 179 220
281 276 271 265 260 262 251 253 255 243 237 236 234 233 224 244 227 117 256 242 221 214 189 170 163 208 168 150 154 158 180 171 196 191 177 187 205 209 215 201 178 170 199
279 274 267 265 261 257 258 259 253 246 235 235 247 257 247 225 147 105 85 67 31 344 198 193 192 178 162 175 165 165 181 197 206 181 183 184 200 221 218 198 164 193 218
278 276 272 264 250 246 247 248 251 255 243 240 234 240 234 242 165 113 65 19 354 356 245 190 167 177 170 180 178 175 183 201 196 192 196 190 190 222 170 198 201 198 228
284 280 271 263 259 253 242 243 233 236 236 238 228 230 231 233 228 158 127 61 307 321 273 231 172 164 170 183 182 181 186 184 190 195 178 181 202 181 167 197 187 205 209
288 276 266 257 256 250 245 236 238 236 235 230 220 205 209 215 208 172 159 212 218 259 272 297 194 167 165 183 197 194 177 186 193 171 181 192 186 157 193 180 190 196 210
285 272 261 257 253 247 236 235 233 226 228 231 211 211 210 187 203 207 198 207 204 220 250 287 271 174 173 176 203 203 189 183 159 161 180 178 172 170 189 180 190 72 325
295 286 265 247 245 240 234 231 225 217 221 216 220 204 195 197 201 206 193 199 202 205 204 245 284 205 180 203 174 191 191 199 175 178 174 172 163 179 188 170 122 113 296
292 277 267 256 248 240 237 230 215 205 202 207 202 198 184 207 192 194 199 193 189 184 188 215 259 277 181 167 154 158 167 157 180 158 159 167 170 176 169 159 128 141 96
309 329 282 264 287 310 78 331 177 173 186 187 185 176 190 200 209 187 194 186 179 170 177 204 229 258 198 95 81 167 204 190 183 177 174 168 172 169 166 125 117 183 237
343 353 358 5 2 17 51 58 92 129 159 166 174 164 168 172 185 172 178 175 168 165 179 198 211 211 176 135 74 249 247 197 173 182 174 154 167 165 130 102 192 178 131
353 3 2 359 6 7 32 37 69 145 139 152 162 161 167 182 182 179 179 177 178 171 177 183 195 191 214 243 263 280 278 193 178 167 149 147 156 132 112 115 134 129 128
1 4 7 5 4 7 12 20 54 58 84 114 126 140 156 159 177 178 181 175 174 171 167 174 176 180 183 207 81 141 178 150 142 152 142 137 131 131 117 122 148 125 126